| time (UTC) | temp F | wind direction | speed MPH | gust MPH | rain 1hr in | rain 24hr in | rain mn in | humidity % | barometer mb |
| 20260901010057 | 95 | 161 | 4.0 | 8.0 | 0.00 | 0.00 | 0.00 | 19 | 999.5 |
| 20260901004600 | 96 | 175 | 4.0 | 7.0 | 0.00 | 0.00 | 0.00 | 20 | 999.4 |
| 20260901003055 | 97 | 198 | 1.0 | 9.0 | 0.00 | 0.00 | 0.00 | 19 | 999.5 |
| 20260901001554 | 97 | 199 | 0.0 | 6.0 | 0.00 | 0.00 | 0.00 | 19 | 999.4 |
| 20260901000054 | 97 | 199 | 2.0 | 8.0 | 0.00 | 0.00 | 0.00 | 19 | 999.5 |
| 20260831234559 | 98 | 198 | 0.0 | 6.0 | 0.00 | 0.00 | 0.00 | 18 | 999.3 |
| 20260831233055 | 99 | 200 | 1.0 | 5.0 | 0.00 | 0.00 | 0.00 | 18 | 999.2 |
| 20260831231552 | 99 | 200 | 2.0 | 8.0 | 0.00 | 0.00 | 0.00 | 18 | 999.3 |
| 20260831230051 | 98 | 209 | 1.0 | 6.0 | 0.00 | 0.00 | 0.00 | 18 | 999.4 |
| 20260831224550 | 99 | 209 | 3.0 | 7.0 | 0.00 | 0.00 | 0.00 | 18 | 999.6 |
| 20260831223050 | 99 | 209 | 0.0 | 4.0 | 0.00 | 0.00 | 0.00 | 17 | 999.8 |
| 20260831221600 | 98 | 209 | 1.0 | 6.0 | 0.00 | 0.00 | 0.00 | 17 | 1000.1 |
| 20260831220045 | 99 | 214 | 1.0 | 7.0 | 0.00 | 0.00 | 0.00 | 19 | 1000.1 |
| 20260831214544 | 99 | 214 | 1.0 | 7.0 | 0.00 | 0.00 | 0.00 | 19 | 1000.4 |
| 20260831213044 | 98 | 205 | 3.0 | 9.0 | 0.00 | 0.00 | 0.00 | 19 | 1000.8 |
| 20260831211539 | 97 | 207 | 4.0 | 9.0 | 0.00 | 0.00 | 0.00 | 21 | 1001.1 |
| 20260831210036 | 97 | 217 | 3.0 | 6.0 | 0.00 | 0.00 | 0.00 | 21 | 1001.3 |
| 20260831204539 | 99 | 246 | 1.0 | 4.0 | 0.00 | 0.00 | 0.00 | 20 | 1001.7 |
| 20260831203035 | 99 | 235 | 2.0 | 5.0 | 0.00 | 0.00 | 0.00 | 21 | 1002.0 |
| 20260831201531 | 98 | 234 | 0.0 | 5.0 | 0.00 | 0.00 | 0.00 | 21 | 1002.4 |
| 20260831200100 | 99 | 232 | 1.0 | 5.0 | 0.00 | 0.00 | 0.00 | 21 | 1002.6 |
| 20260831194535 | 97 | 232 | 0.0 | 7.0 | 0.00 | 0.00 | 0.00 | 22 | 1002.8 |
| 20260831193030 | 96 | 256 | 0.0 | 8.0 | 0.00 | 0.00 | 0.00 | 22 | 1003.1 |
| 20260831191528 | 98 | 265 | 0.0 | 4.0 | 0.00 | 0.00 | 0.00 | 22 | 1003.2 |
| 20260831190034 | 97 | 265 | 2.0 | 6.0 | 0.00 | 0.00 | 0.00 | 22 | 1003.5 |
| 20260831184522 | 96 | 265 | 0.0 | 6.0 | 0.00 | 0.00 | 0.00 | 23 | 1003.8 |
| 20260831183020 | 94 | 232 | 0.0 | 3.0 | 0.00 | 0.00 | 0.00 | 23 | 1003.9 |
| 20260831181523 | 93 | 232 | 0.0 | 5.0 | 0.00 | 0.00 | 0.00 | 24 | 1004.1 |
| 20260831180014 | 93 | 232 | 1.0 | 5.0 | 0.00 | 0.00 | 0.00 | 23 | 1004.2 |
| 20260831174509 | 90 | 232 | 0.0 | 7.0 | 0.00 | 0.00 | 0.00 | 26 | 1004.3 |
| 20260831173006 | 90 | 233 | 2.0 | 7.0 | 0.00 | 0.00 | 0.00 | 26 | 1004.5 |
| 20260831171502 | 91 | 233 | 0.0 | 6.0 | 0.00 | 0.00 | 0.00 | 25 | 1004.5 |
| 20260831170059 | 91 | 233 | 0.0 | 3.0 | 0.00 | 0.00 | 0.00 | 25 | 1004.6 |
| 20260831164554 | 89 | 233 | 0.0 | 3.0 | 0.00 | 0.00 | 0.00 | 27 | 1004.6 |
| 20260831163050 | 90 | 233 | 0.0 | 4.0 | 0.00 | 0.00 | 0.00 | 26 | 1004.6 |
| 20260831161546 | 89 | 233 | 0.0 | 2.0 | 0.00 | 0.00 | 0.00 | 27 | 1004.6 |
| 20260831160043 | 90 | 233 | 0.0 | 4.0 | 0.00 | 0.00 | 0.00 | 27 | 1004.4 |
| 20260831154539 | 88 | 232 | 0.0 | 6.0 | 0.00 | 0.00 | 0.00 | 27 | 1004.3 |
| 20260831153034 | 88 | 232 | 0.0 | 4.0 | 0.00 | 0.00 | 0.00 | 27 | 1004.3 |
| 20260831151530 | 87 | 232 | 0.0 | 4.0 | 0.00 | 0.00 | 0.00 | 29 | 1004.2 |
| 20260831150026 | 85 | 232 | 1.0 | 5.0 | 0.00 | 0.00 | 0.00 | 31 | 1004.2 |
| 20260831144521 | 82 | 232 | 0.0 | 5.0 | 0.00 | 0.00 | 0.00 | 34 | 1004.2 |
| 20260831143018 | 81 | 234 | 3.0 | 8.0 | 0.00 | 0.00 | 0.00 | 35 | 1004.0 |
| 20260831141521 | 81 | 240 | 0.0 | 7.0 | 0.00 | 0.00 | 0.00 | 35 | 1003.8 |
| 20260831140031 | 81 | 238 | 1.0 | 5.0 | 0.00 | 0.00 | 0.00 | 35 | 1003.9 |
| 20260831134512 | 79 | 237 | 2.0 | 8.0 | 0.00 | 0.00 | 0.00 | 36 | 1003.2 |
| 20260831133008 | 79 | 238 | 3.0 | 11.0 | 0.00 | 0.00 | 0.00 | 36 | 1002.9 |
| 20260831131503 | 78 | 203 | 4.0 | 7.0 | 0.00 | 0.00 | 0.00 | 37 | 1002.8 |
| 20260831130001 | 78 | 203 | 3.0 | 5.0 | 0.00 | 0.00 | 0.00 | 36 | 1002.8 |
| 20260831124559 | 78 | 202 | 2.0 | 6.0 | 0.00 | 0.00 | 0.00 | 36 | 1002.8 |
| 20260831123057 | 78 | 202 | 2.0 | 6.0 | 0.00 | 0.00 | 0.00 | 36 | 1002.8 |
| 20260831121555 | 79 | 202 | 2.0 | 7.0 | 0.00 | 0.00 | 0.00 | 35 | 1002.7 |
| 20260831120116 | 79 | 200 | 5.0 | 7.0 | 0.00 | 0.00 | 0.00 | 34 | 1002.6 |
| 20260831114550 | 80 | 200 | 4.0 | 7.0 | 0.00 | 0.00 | 0.00 | 34 | 1002.5 |
| 20260831113052 | 80 | 202 | 3.0 | 7.0 | 0.00 | 0.00 | 0.00 | 34 | 1002.5 |
| 20260831111554 | 80 | 202 | 1.0 | 4.0 | 0.00 | 0.00 | 0.00 | 34 | 1002.6 |
| 20260831110045 | 81 | 202 | 0.0 | 3.0 | 0.00 | 0.00 | 0.00 | 33 | 1002.5 |
| 20260831104542 | 81 | 202 | 0.0 | 6.0 | 0.00 | 0.00 | 0.00 | 32 | 1002.2 |
| 20260831103004 | 82 | 202 | 2.0 | 5.0 | 0.00 | 0.00 | 0.00 | 31 | 1002.1 |
| 20260831101542 | 83 | 202 | 2.0 | 7.0 | 0.00 | 0.00 | 0.00 | 30 | 1002.2 |
| 20260831100038 | 83 | 202 | 3.0 | 8.0 | 0.00 | 0.00 | 0.00 | 30 | 1002.1 |
| 20260831094537 | 84 | 196 | 4.0 | 7.0 | 0.00 | 0.00 | 0.00 | 29 | 1002.1 |
| 20260831093036 | 84 | 196 | 0.0 | 6.0 | 0.00 | 0.00 | 0.00 | 29 | 1002.0 |
| 20260831091538 | 84 | 196 | 3.0 | 8.0 | 0.00 | 0.00 | 0.00 | 28 | 1001.9 |
| 20260831090036 | 84 | 196 | 0.0 | 4.0 | 0.00 | 0.00 | 0.00 | 29 | 1001.7 |
| 20260831084536 | 84 | 195 | 0.0 | 5.0 | 0.00 | 0.00 | 0.00 | 29 | 1001.6 |
| 20260831083034 | 84 | 195 | 0.0 | 3.0 | 0.00 | 0.00 | 0.00 | 29 | 1001.7 |
| 20260831081535 | 84 | 196 | 0.0 | 3.0 | 0.00 | 0.00 | 0.00 | 29 | 1001.7 |
| 20260831080034 | 84 | 196 | 0.0 | 2.0 | 0.00 | 0.00 | 0.00 | 28 | 1001.9 |
| 20260831074528 | 85 | 195 | 0.0 | 1.0 | 0.00 | 0.00 | 0.00 | 27 | 1002.0 |
| 20260831073026 | 85 | 195 | 0.0 | 6.0 | 0.00 | 0.00 | 0.00 | 27 | 1002.0 |
| 20260831071523 | 86 | 195 | 0.0 | 5.0 | 0.00 | 0.00 | 0.00 | 27 | 1002.3 |
| 20260831064556 | 87 | 196 | 2.0 | 7.0 | 0.00 | 0.00 | 0.00 | 26 | 1002.2 |
| 20260831063054 | 87 | 198 | 1.0 | 5.0 | 0.00 | 0.00 | 0.00 | 25 | 1002.2 |
| 20260831061523 | 87 | 199 | 0.0 | 5.0 | 0.00 | 0.00 | 0.00 | 24 | 1002.3 |
| 20260831060020 | 87 | 200 | 1.0 | 3.0 | 0.00 | 0.00 | 0.00 | 24 | 1002.3 |
| 20260831054519 | 87 | 199 | 1.0 | 6.0 | 0.00 | 0.00 | 0.00 | 23 | 1002.3 |
| 20260831053020 | 87 | 199 | 0.0 | 2.0 | 0.00 | 0.00 | 0.00 | 24 | 1002.3 |
| 20260831051532 | 88 | 199 | 0.0 | 4.0 | 0.00 | 0.00 | 0.00 | 24 | 1002.2 |
| 20260831050017 | 89 | 200 | 0.0 | 0.0 | 0.00 | 0.00 | 0.00 | 24 | 1002.1 |
| 20260831044522 | 89 | 200 | 0.0 | 0.0 | 0.00 | 0.00 | 0.00 | 24 | 1002.0 |
| 20260831043016 | 89 | 200 | 0.0 | 0.0 | 0.00 | 0.00 | 0.00 | 24 | 1002.0 |
| 20260831041555 | 90 | 199 | 0.0 | 0.0 | 0.00 | 0.00 | 0.00 | 23 | 1001.9 |
| 20260831040032 | 90 | 200 | 0.0 | 0.0 | 0.00 | 0.00 | 0.00 | 22 | 1001.9 |
| 20260831034530 | 91 | 200 | 0.0 | 0.0 | 0.00 | 0.00 | 0.00 | 22 | 1001.8 |
| 20260831033055 | 92 | 200 | 0.0 | 0.0 | 0.00 | 0.00 | 0.00 | 21 | 1001.6 |
| 20260831031529 | 92 | 200 | 0.0 | 0.0 | 0.00 | 0.00 | 0.00 | 20 | 1001.5 |
| 20260831024600 | 93 | 200 | 0.0 | 0.0 | 0.00 | 0.00 | 0.00 | 19 | 1001.0 |
| 20260831023100 | 94 | 200 | 0.0 | 3.0 | 0.00 | 0.00 | 0.00 | 19 | 1000.8 |
| 20260831021600 | 94 | 200 | 0.0 | 2.0 | 0.00 | 0.00 | 0.00 | 18 | 1000.7 |
| 20260831020111 | 95 | 200 | 2.0 | 6.0 | 0.00 | 0.00 | 0.00 | 18 | 1000.6 |
| 20260831014559 | 95 | 199 | 1.0 | 6.0 | 0.00 | 0.00 | 0.00 | 18 | 1000.5 |
| 20260831013103 | 95 | 199 | 2.0 | 7.0 | 0.00 | 0.00 | 0.00 | 18 | 1000.4 |
| 20260831011558 | 96 | 199 | 1.0 | 4.0 | 0.00 | 0.00 | 0.00 | 18 | 1000.4 |